PEGASUS DEB, 29033

Orbit data source: Space-Track

PEGASUS DEB, 29033 is space debris in LEO originally from a launch on Thu, 19 May 1994 UTC launched from the Air Force Western Test Range (AFWTR). Debris objects in space refer to the collection of defunct objects orbiting the Earth. Examples of debris include non-operational satellites, rocket bodies, and fragments generated from explosions, collisions, or faulty payload assembly.

Loading next visibility...
Identifier
29033, 1994-029AEQ
Orbit
LEO
Country
Flag of USUS
Related business
Manufacturer
Unknown
Mission
Spacecraft
Bus & Motor
Unknown
Mass
Unknown
Launch date (UTC)
1994-05-19 (32 years ago)
Launch vehicle
Unknown
Launch site
Air Force Western Test Range (AFWTR)
Object type
Payload
Rocket body
Debris
Shape & HBR
Unknown shape, 0.1 m
Radar Cross Section
Small (<0.1 m²)

Expand to show TLE details & history
Last TLE update: 2 days ago

TLE from 2 days ago
0 PEGASUS DEB
1 29033U 94029AEQ 26061.96631269  .00029116  00000-0  38741-2 0  9992
2 29033  81.9597  53.3561 0163740  11.4151 349.0695 14.70595008213499
Epoch: 2026-03-02T23:11Z
TLE epoch observation values (Epoch: 2026-03-02T23:11:29.416Z)
Latitude
-0.00001°
Longitude
-95.26861°
Altitude
549.082 km
Speed
7.648 km/s
True Right ascension
03h 33m 25s
True Declination
0° 00' 00"
Sunlit
Object was in daylight at epoch
Visualization orbit readout
Latitude
Unknown
Longitude
Unknown
Altitude
Unknown
Speed
Unknown
Apparent Right ascension
Unknown
Apparent Declination
Unknown
Sunlit
N/A
Visualization observer readout
Local Sidereal Time
01:56:07
Azimuth
Unknown
Elevation
Unknown
Doppler factor
Unknown
Orbital elements
Apogee altitude
771.408 km
Perigee altitude
541.047 km
Semi-major axis
7,034.365 km
Eccentricity
0.01637
Inclination
81.9597°
RAAN
53.3561°
Arg. of periapsis
11.4151°
True anomaly
348.70643°
Mean anomaly
349.0695°
Eccentric anomaly
348.8887°
Mean motion
3.6788 °/min
Orbital period
97.86 mins
BSTAR
0.0038741
Loading maneuver chart data...
Computing Atmospheric mass density...
Loading historical data...
Loading historical data...
Loading historical data...
Loading historical data...
Loading historical data...
Loading historical data...
Loading historical data...

Documentation

Showing up to 5 results
|